Torna al catalogo

TIROS 5

AttivoMeteoLEO
NORAD 309·PAYLOAD·🇺🇸 United States

Lanciato Jun 19, 1962 da Cape Canaveral Space Force Station

Loading…

Prossimi Passaggi (prossime 24 ore)

TLE

AggiornatoSource: Space-Track

Epoca: Sep 14, 2026, 09:31 UTC

1 00309U 62025A   26257.39656862  .00000386  00000-0  96258-4 0  9995
2 00309  58.0880 251.7759 0185951  30.8203 330.3587 14.60725369394866

Traccia TIROS 5 in tempo reale con AllMySat

Download on the App Store